{"data":{"norad_id":53466,"intl_designator":"2022-099B","name":"STARLINK-4398","alt_names":[],"object_type":"PAYLOAD","status":"ACTIVE","operator":null,"country":"US","launch_date":"2022-08-12","launch_site_code":"AFWTR","launch_vehicle":null,"mission":null,"orbit_class":"UNKNOWN","rcs_meters":null,"size_class":null,"mass_kg":null,"dimensions":null,"purposes":["comms"],"wikipedia_slug":null,"has_3d_model":false,"image_url":null,"decayed_at":null,"tle_current":{"epoch":"2026-05-25T06:00:02.000160Z","epoch_age_seconds":46811,"freshness":"FRESH","line1":"1 53466U 22099B   26145.25002315  .00469900  00000+0  10766-1 0  9990","line2":"2 53466  97.6047 267.2153 0001273  80.8131  63.1375 15.40899288  5687","mean_motion":15.40899288,"eccentricity":0.0001273,"inclination_deg":97.6047,"raan_deg":267.2153,"arg_perigee_deg":80.8131,"mean_anomaly_deg":63.1375,"bstar":0.010766,"rev_number":568,"period_min":93.451921953254,"perigee_km":442.58552774356,"apogee_km":444.32230479084,"semimajor_km":6821.5909162672,"source":"CELESTRAK","updated_at":"2026-05-25T13:38:17.408197Z"}}}